Location: Hermaringen
(48.5952°N, 10.2585°E)
Time: 17:36:28
(UTC+00:00)

Injun/Solrad 3 - Pass Details

Date: 18 February 2026
Orbit: 872 x 984 km, 66.8° (Epoch: 6 March)

Event Time Altitude Azimuth Distance (km) Brightness Sun altitude
Rises 20:01:43 0° 319° (NW) 3,579 11.8 -32.7°
Reaches altitude 10° 20:04:24 10° 311° (NW) 2,650 11.0 -33.1°
Maximum altitude 20:09:54 35° 248° (WSW) 1,492 9.2 -34.0°
Enters shadow 20:10:56 33° 228° (SW) 1,551 9.1 -34.1°
